Wetterdaten Winter 2020/2021

Datum T max T min Regen
01.12.2020 0.8 °C -2.8 °C 6.2 mm
02.12.2020 0.9 °C -0.8 °C 0 mm
03.12.2020 2.8 °C -0.9 °C 0 mm
04.12.2020 3.6 °C -0.8 °C 0 mm
05.12.2020 2.1 °C -0.6 °C 4 mm
06.12.2020 2.9 °C 0.8 °C 4.2 mm
07.12.2020 4.9 °C 0.3 °C 0.8 mm
08.12.2020 3.2 °C -0.6 °C 0 mm
09.12.2020 1.7 °C -0.5 °C 2.4 mm
10.12.2020 1.4 °C -0.6 °C 0 mm
11.12.2020 3 °C -1 °C 1.6 mm
12.12.2020 5.9 °C 2.4 °C 3.4 mm
13.12.2020 7 °C 3.8 °C 0.4 mm
15.12.2020 7.3 °C 3.7 °C 1.6 mm
16.12.2020 10.2 °C 3.7 °C 0.2 mm
17.12.2020 8.2 °C 2.1 °C 0 mm
18.12.2020 7.9 °C -0.1 °C 0 mm
19.12.2020 10.1 °C 1.5 °C 0 mm
20.12.2020 8.8 °C 6 °C 0.8 mm
21.12.2020 8.6 °C 4.1 °C 2 mm
22.12.2020 13.9 °C 8.2 °C 0.4 mm
23.12.2020 14.6 °C 10.9 °C 3.2 mm
24.12.2020 11.2 °C 0.6 °C 7.8 mm
25.12.2020 3 °C -1.4 °C 1.8 mm
26.12.2020 2.9 °C -1.9 °C 0.2 mm
27.12.2020 6.9 °C -1.9 °C 0 mm
28.12.2020 6.8 °C 1.9 °C 1.4 mm
29.12.2020 5 °C 2 °C 1.4 mm
30.12.2020 5.4 °C 1.4 °C 0 mm
31.12.2020 4.1 °C 0.3 °C 1.6 mm
01.01.2021 3.6 °C -0.4 °C 0 mm
02.01.2021 2.4 °C -0.3 °C 0 mm
03.01.2021 1.3 °C -0.5 °C 2 mm
04.01.2021 1.8 °C 0.3 °C 0 mm
05.01.2021 2.1 °C 0.4 °C 0.2 mm
06.01.2021 1.6 °C 0.3 °C 2.2 mm
07.01.2021 2.6 °C 0.7 °C 1 mm
08.01.2021 1.2 °C 0.2 °C 0.2 mm
09.01.2021 2.1 °C -2.8 °C 0.2 mm
10.01.2021 1.8 °C -5.2 °C 0 mm
11.01.2021 -0.2 °C -6.6 °C 0 mm
12.01.2021 3.6 °C -1.3 °C 6.6 mm
13.01.2021 4.1 °C -0.4 °C 0.6 mm
14.01.2021 4 °C -0.1 °C 0.2 mm
15.01.2021 1.3 °C -2.9 °C 0 mm
16.01.2021 0.1 °C -2.2 °C 0.2 mm
17.01.2021 1.6 °C -2.4 °C 4.2 mm
18.01.2021 3.6 °C 1.4 °C 0.4 mm
19.01.2021 5 °C 0.5 °C 0.2 mm
20.01.2021 7.2 °C 3.4 °C 0 mm
21.01.2021 13.4 °C 6.1 °C 0 mm
22.01.2021 13.3 °C 0.9 °C 2.8 mm
23.01.2021 5.3 °C 0.3 °C 6.6 mm
24.01.2021 3 °C -1 °C 2.6 mm
25.01.2021 2.1 °C -0.9 °C 5.4 mm
26.01.2021 2.8 °C -0.6 °C 0.2 mm
27.01.2021 1.9 °C -1 °C 1.2 mm
28.01.2021 11.8 °C 1.8 °C 8.6 mm
29.01.2021 11.6 °C 6.7 °C 6.6 mm
30.01.2021 8.4 °C 2.6 °C 4.8 mm
31.01.2021 3.9 °C 1.3 °C 0.2 mm
01.02.2021 8.7 °C 3.1 °C 6.4 mm
02.02.2021 11.4 °C 4.8 °C 1 mm
03.02.2021 11.2 °C 8.8 °C 5.6 mm
04.02.2021 10.1 °C 4.4 °C 0 mm
05.02.2021 10.1 °C 6.4 °C 4.8 mm
06.02.2021 9.4 °C 5.6 °C 0 mm
07.02.2021 7.6 °C 3.3 °C 4.8 mm
08.02.2021 3.4 °C -3 °C 0.8 mm
09.02.2021 -2.3 °C -4.9 °C 0.2 mm
10.02.2021 -4.8 °C -9 °C 4 mm
11.02.2021 -1.8 °C -12.6 °C 0 mm
12.02.2021 -2.1 °C -12.6 °C 0 mm
13.02.2021 -1.1 °C -9.8 °C 0 mm
14.02.2021 3.7 °C -11.9 °C 0 mm
15.02.2021 3.7 °C -5 °C 1.2 mm
16.02.2021 12.1 °C 1.7 °C 0 mm
17.02.2021 12 °C 2.8 °C 0.6 mm
18.02.2021 13 °C 0.4 °C 0 mm
19.02.2021 12.8 °C 5.8 °C 0.4 mm
20.02.2021 18.4 °C 5 °C 0 mm
21.02.2021 19.5 °C 1.8 °C 0 mm
22.02.2021 16.1 °C 2 °C 0 mm
23.02.2021 19.2 °C 3 °C 0 mm
25.02.2021 20.8 °C 4.6 °C 0 mm
26.02.2021 14.4 °C 3.3 °C 0.4 mm
27.02.2021 10.3 °C 0.7 °C 0 mm
28.02.2021 11.3 °C -1.8 °C 0 mm
 Hinweis zur Datenqualität
∅ Temperatur

3.4 °C

Abweichung vom Mittel

+1.4 °C

Niederschlag

132.8 mm

Abweichung vom Mittel

107 %

20.8 °C

Lufttemperatur
25.02.2021

1041 hPa

Luftdruck
14.02.2021

38.5 km/h

Windböen
29.01.2021

132.8 mm

Niederschlag
 

-12.6 °C

Lufttemperatur
11.02.2021

-12.2 °C

Bodentemperatur 5cm
12.02.2021

980 hPa

Luftdruck
28.12.2020
 Hinweis zur Datenqualität